Dewpoint
72 73 73 73 73 73 72 72 71 71 70 71 72 72 73 73 72 72 71 72 72 72 73 71 70 70 69 67 61 58 58 60 55 56 58 59 59 60 59 59 61 57 58
71 72 72 73 73 73 72 71 71 71 71 71 72 72 72 73 73 74 74 73 70 71 72 69 70 71 68 68 62 61 59 60 58 54 56 57 57 60 59 58 58 59 58
70 72 72 74 74 73 73 72 71 72 73 74 73 74 74 74 74 74 74 74 73 72 72 69 70 70 68 64 60 60 61 61 58 56 56 58 58 59 59 59 59 57 58
71 73 73 73 73 74 74 75 75 76 75 75 75 74 75 75 75 74 75 73 73 73 73 71 70 70 68 64 61 60 60 58 58 57 55 55 56 58 59 59 57 57 56
73 73 73 73 74 73 73 74 74 74 75 74 73 73 72 75 75 73 73 74 73 72 71 70 68 69 67 64 61 61 60 60 57 54 55 55 54 56 57 59 57 57 56
69 68 69 68 68 69 69 69 70 69 71 73 73 73 72 72 69 68 69 73 73 71 69 65 65 64 62 62 62 61 61 60 57 55 54 54 54 55 56 57 56 56 55
69 68 69 68 68 70 71 72 73 72 73 73 73 74 73 73 67 65 66 69 71 72 69 64 65 58 57 55 59 59 61 61 61 60 56 56 56 57 56 56 57 56 56
68 69 70 71 70 70 71 71 71 71 72 72 73 74 74 73 65 63 64 69 71 71 70 66 66 62 54 52 54 56 56 56 59 60 59 58 58 58 58 58 58 58 57
66 67 69 69 69 70 70 70 71 71 71 72 73 73 73 71 64 62 64 69 71 70 69 68 65 62 57 58 57 57 54 52 55 57 57 57 57 57 56 58 57 58 57
65 66 68 69 69 68 68 69 70 71 71 71 73 73 70 72 64 59 62 69 69 70 71 67 63 62 56 58 60 58 55 52 50 50 50 51 53 53 57 57 58 57 56
64 66 67 67 66 67 67 68 68 68 71 70 69 71 72 67 62 57 57 67 67 68 69 68 66 58 54 54 59 58 57 56 56 53 54 56 55 54 57 59 59 59 58
61 62 64 65 66 66 65 66 67 67 66 67 66 68 70 65 60 57 56 56 59 66 67 67 64 55 52 52 57 57 55 56 56 57 57 56 56 57 57 58 59 60 61
60 60 62 62 64 64 63 63 63 64 62 62 65 64 67 66 63 59 59 58 59 64 67 65 60 52 50 53 54 54 55 56 57 58 57 57 58 58 58 57 58 60 59
60 60 61 61 59 64 63 62 63 61 60 61 61 60 64 63 61 60 60 61 62 63 63 59 57 54 54 57 55 54 57 57 58 57 58 58 59 58 57 57 57 58 57
60 59 54 58 56 59 60 61 62 59 58 60 60 59 59 59 57 50 49 53 56 56 60 61 57 55 56 56 56 56 56 58 57 59 57 56 55 56 57 57 57 57 57
59 54 55 54 56 58 59 59 53 53 51 49 48 52 57 54 48 46 45 44 44 47 60 60 60 59 57 56 56 56 55 57 57 59 56 55 54 55 56 55 56 57 57
57 53 55 53 53 56 54 55 57 56 51 50 50 48 47 47 46 45 44 44 47 51 62 60 60 60 59 55 56 56 54 56 57 59 56 55 55 56 54 54 54 56 57
54 52 52 52 53 51 52 56 57 55 53 54 52 51 48 47 45 45 44 48 60 57 60 63 61 60 61 61 60 60 57 57 58 59 56 57 57 55 54 54 54 54 57
53 51 51 52 52 53 54 54 53 53 53 53 53 53 52 46 46 48 47 58 60 61 62 62 63 62 61 61 60 62 61 60 59 60 55 59 58 56 54 55 54 52 53
51 52 52 51 51 51 51 50 50 51 51 52 53 53 51 50 51 54 55 57 56 56 57 59 63 64 62 62 62 63 63 63 62 62 60 59 57 57 55 55 54 51 53
51 51 52 50 49 48 48 48 49 50 51 52 52 51 45 50 50 51 51 53 53 53 53 54 55 59 64 64 63 62 63 63 63 61 59 59 58 56 56 56 55 52 52
49 48 48 46 46 46 46 46 47 48 48 48 49 49 46 49 49 49 49 49 50 50 51 51 53 55 58 61 63 63 62 62 61 60 58 57 58 59 59 56 54 53 52
46 46 46 45 44 45 44 45 45 46 46 46 46 47 47 47 47 47 46 47 47 48 49 50 50 51 53 54 57 62 62 62 61 60 59 59 58 57 57 57 55 54 53
45 45 44 43 44 42 43 42 44 44 44 44 44 44 44 45 45 45 45 46 46 46 47 48 48 49 49 50 52 53 51 55 61 60 59 59 57 56 58 57 54 53 53
44 44 43 43 42 42 43 44 44 43 44 43 43 43 44 44 44 44 45 46 46 46 47 48 48 48 49 49 50 51 43 35 43 47 60 59 58 58 56 55 55 54 54
45 44 44 43 42 42 43 44 43 43 43 43 42 42 42 43 44 45 45 45 46 46 47 47 47 46 46 48 49 42 39 37 41 38 55 59 58 57 57 57 55 54 54
Lifted_Index
-5 -5 -5 -5 -4 -4 -4 -4 -3 -3 -3 -3 -3 -4 -4 -5 -5 -5 -4 -4 -4 -4 -4 -3 -3 -3 -2 -1 -0 1 3 3 3 4 5 5 4 4 3 3 3 3 3
-5 -5 -5 -5 -5 -5 -5 -4 -4 -4 -4 -4 -4 -4 -5 -5 -5 -5 -5 -5 -5 -4 -4 -4 -3 -3 -2 -1 -0 1 3 3 4 4 5 5 5 4 3 3 3 3 2
-5 -5 -5 -6 -6 -6 -6 -5 -5 -5 -6 -6 -6 -6 -6 -5 -5 -5 -5 -5 -5 -5 -4 -4 -3 -3 -2 -1 -0 1 3 4 4 5 6 6 5 4 3 3 3 3 2
-5 -5 -5 -6 -6 -6 -6 -6 -6 -6 -6 -7 -7 -6 -6 -6 -6 -5 -5 -5 -5 -5 -4 -4 -3 -3 -2 -1 -0 2 3 4 4 5 5 6 6 5 4 3 3 3 2
-5 -5 -5 -5 -5 -6 -6 -6 -6 -5 -5 -6 -6 -6 -6 -6 -6 -5 -5 -4 -4 -4 -4 -4 -3 -3 -2 -1 -0 2 4 4 4 5 5 6 6 5 4 4 3 3 2
-4 -4 -4 -4 -5 -5 -5 -5 -4 -4 -4 -4 -5 -5 -5 -5 -5 -5 -4 -4 -4 -4 -4 -3 -3 -2 -2 -1 0 3 5 5 5 5 5 6 6 5 5 4 4 3 3
-3 -3 -3 -4 -4 -4 -4 -4 -4 -3 -3 -4 -4 -4 -4 -5 -5 -5 -4 -4 -3 -3 -3 -3 -2 -2 -1 -1 1 3 6 7 6 6 6 6 6 6 5 4 4 3 3
-2 -2 -2 -3 -3 -3 -4 -4 -4 -4 -4 -4 -4 -4 -4 -5 -5 -4 -3 -3 -3 -3 -3 -3 -2 -1 -1 -0 1 3 6 8 7 7 7 7 7 6 6 5 5 4 4
-1 -1 -2 -2 -3 -3 -3 -3 -4 -4 -4 -4 -4 -4 -4 -5 -5 -3 -2 -3 -3 -4 -3 -2 -1 -1 -0 -0 1 3 6 8 9 8 8 8 8 7 7 6 5 5 5
-0 -0 -1 -2 -2 -2 -2 -3 -3 -4 -4 -3 -4 -4 -4 -5 -5 -4 -3 -3 -3 -3 -3 -2 -1 0 1 1 1 2 6 9 10 10 10 9 9 9 7 6 6 6 6
0 -0 -1 -1 -1 -1 -1 -2 -2 -3 -3 -3 -3 -4 -4 -5 -5 -5 -4 -3 -3 -2 -2 -1 0 1 2 2 1 3 6 10 11 11 10 10 10 9 8 7 7 7 7
1 0 -0 -1 -1 -1 -1 -1 -1 -1 -1 -1 -2 -3 -4 -4 -5 -5 -4 -3 -3 -2 -1 -0 1 1 2 2 2 3 6 9 10 10 9 9 9 9 8 8 7 7 7
1 1 0 -0 -1 -1 -1 -1 -1 -0 0 -0 -1 -3 -4 -4 -5 -5 -5 -4 -3 -2 -1 -0 1 1 1 1 1 3 6 8 8 8 8 8 8 9 9 8 8 8 8
1 1 1 0 -0 -1 -1 -0 -0 0 1 0 -1 -2 -3 -4 -5 -5 -4 -4 -3 -3 -2 -1 -0 -0 -0 -1 -0 2 5 6 6 6 7 8 8 9 10 9 8 8 8
1 1 1 1 1 0 -0 -0 0 1 1 0 -0 -1 -3 -3 -4 -4 -4 -4 -3 -3 -2 -1 -1 -1 -1 -1 -1 1 3 4 4 5 6 7 8 9 10 9 8 8 9
1 2 2 2 1 1 1 1 1 1 2 2 1 0 -1 -2 -3 -3 -4 -3 -3 -3 -2 -2 -1 -1 -2 -2 -2 -1 0 2 3 4 5 6 8 9 9 9 9 8 8
2 2 2 3 3 2 2 2 2 3 4 4 4 2 1 -0 -1 -2 -3 -3 -3 -2 -2 -2 -2 -2 -2 -2 -2 -2 -2 -0 2 3 4 5 7 8 8 9 9 8 8
3 3 3 3 3 3 3 3 3 4 5 6 6 5 3 2 0 -1 -1 -2 -2 -2 -2 -2 -2 -2 -2 -2 -2 -2 -2 -1 1 2 3 4 6 7 8 8 9 8 8
3 4 4 4 4 4 4 4 5 6 6 7 7 7 6 4 2 1 0 -0 -1 -1 -1 -1 -1 -1 -1 -2 -2 -2 -2 -1 -0 1 2 3 5 6 7 8 8 8 8
4 5 5 4 4 4 5 6 6 7 8 8 9 9 8 7 5 3 2 1 0 -0 -0 -0 -0 -0 -1 -1 -2 -2 -2 -1 -1 0 1 2 4 5 7 7 7 8 8
5 5 5 5 5 6 7 7 8 8 8 9 9 10 9 8 7 5 4 2 1 1 1 0 0 -0 -0 -1 -1 -1 -1 -1 -1 -1 0 1 2 4 6 7 7 7 7
6 6 6 7 7 8 8 8 8 8 8 8 9 9 9 9 8 7 6 4 3 2 1 1 0 0 -0 -0 -0 -1 -1 -1 -1 -1 -1 0 2 3 5 6 6 6 6
6 7 8 8 8 8 8 8 8 8 8 8 9 9 9 9 9 8 7 5 4 2 2 1 1 1 0 0 0 -0 -0 -1 -1 -1 -1 -0 1 2 4 5 5 6 6
8 9 9 9 9 9 8 8 8 8 8 8 8 9 9 9 8 8 7 6 4 3 2 2 1 1 1 1 0 0 -0 -1 -1 -2 -1 -1 0 1 2 3 5 6 6
9 10 10 10 10 9 9 8 8 9 9 9 9 9 9 9 8 8 7 6 5 4 3 2 1 1 1 1 0 0 0 -0 -1 -2 -2 -1 -1 0 1 3 4 6 6
10 10 10 10 10 9 9 8 9 9 9 9 9 9 9 9 9 9 8 7 6 5 4 3 2 1 1 0 0 0 0 -0 -1 -1 -2 -2 -1 -0 1 2 4 5 6